Simultaneous Nadir Overpasses (SNOs) Predictions

Prediction of SNOs between AQUA and METOP-A Satellite Orbit:

Table of predicted SNOs for the next 14.0 days since TLE Epoch: 5/12/2017
Index Date (AQUA) Time (AQUA) Lat,Lon (AQUA) SZA (AQUA ) Date (METOP-A) Time (METOP-A) Lat,Lon (METOP-A) SZA (METOP-A ) Distance(km) Time Diff (sec)
1 05/14/2017 18:17:43 -73.87, 79.72 124.96 05/14/2017 18:16:37 -73.86, 79.75 124.96 1.71 66
2 05/14/2017 19:07:12 73.93,-112.78 55.10 05/14/2017 19:07:15 73.94,-112.70 55.11 2.67 3
3 05/14/2017 19:56:41 -74.12, 54.43 124.71 05/14/2017 19:57:53 -74.13, 55.08 124.72 19.69 72
4 05/17/2017 13:51:57 -73.85, 146.21 125.63 05/17/2017 13:50:57 -73.87, 146.20 125.59 3.04 60
5 05/17/2017 14:41:26 73.91, -46.29 54.43 05/17/2017 14:41:36 73.91, -46.38 54.44 2.71 10
6 05/17/2017 15:31:00 -74.36, 120.32 125.10 05/17/2017 15:32:09 -74.34, 122.02 125.17 51.07 69
7 05/20/2017 09:26:13 -73.88,-147.43 126.20 05/20/2017 09:25:18 -73.89,-147.36 126.18 2.28 55
8 05/20/2017 10:15:42 73.95, 20.06 53.87 05/20/2017 10:15:57 73.93, 20.06 53.85 2.18 15
9 05/20/2017 11:05:19 -74.55,-173.70 125.50 05/20/2017 11:06:26 -74.55,-171.03 125.57 79.21 67
10 05/23/2017 05:00:28 -73.87, -80.98 126.76 05/23/2017 04:59:40 -73.85, -81.04 126.77 3.16 48
11 05/23/2017 05:49:57 73.94, 86.51 53.31 05/23/2017 05:50:18 73.94, 86.50 53.31 0.33 21
12 05/26/2017 00:34:42 -73.87, -14.54 127.27 05/26/2017 00:34:00 -73.86, -14.61 127.27 2.46 42
13 05/26/2017 01:24:11 73.94, 152.94 52.80 05/26/2017 01:24:38 73.95, 152.93 52.81 0.99 27




NCC Satellite Simultaneous Nadir Overpasses (SNOs) Prediction Service
